Wind_Speed
12 13 17 16 14 14 13 12 13 10 10 9 9 8 8 8 6 7 8 8 6 6
15 14 15 15 13 15 15 11 8 7 9 9 8 7 6 5 5 8 9 9 7 6
18 16 16 16 16 15 12 9 8 9 9 8 7 5 4 5 7 8 9 8 7 7
19 17 16 16 14 11 8 8 9 11 9 7 4 4 5 7 9 8 8 8 8 7
18 16 14 12 11 10 10 12 13 10 6 2 4 6 9 10 11 10 10 9 9 7
13 12 11 11 11 12 12 11 11 8 3 2 6 7 9 10 6 7 9 10 9 8
14 10 9 11 11 13 12 13 8 5 1 4 6 6 3 2 3 5 7 7 9 9
12 10 6 12 10 11 15 10 8 5 1 4 5 3 4 1 1 3 4 6 9 9
10 8 10 11 9 15 12 9 7 5 4 6 6 5 4 1 1 2 4 7 9 10
9 11 11 10 11 15 9 8 7 4 4 6 7 6 6 3 2 4 8 9 9 11
12 13 13 13 13 12 8 7 5 3 2 5 6 6 5 3 3 7 9 9 9 11
12 13 12 11 10 11 9 8 7 3 1 4 5 5 6 6 7 11 10 10 9 7
12 10 12 12 9 11 10 9 7 4 1 3 4 4 5 6 7 10 12 10 8 13
10 10 10 9 8 9 10 9 7 5 3 1 3 4 5 5 5 9 13 14 17 16
Wind_Direction
159 170 174 178 165 163 169 183 196 230 239 227 219 217 223 223 241 263 264 266 264 251
153 162 155 155 155 165 179 192 205 207 187 195 203 210 209 225 252 269 265 253 252 250
148 151 156 161 166 175 187 193 192 178 175 180 181 199 237 257 268 272 257 241 238 228
149 158 164 168 174 179 173 175 166 160 158 162 185 246 275 276 273 264 242 235 227 222
152 158 166 174 170 158 152 148 155 157 162 213 277 284 281 281 269 246 234 231 231 217
151 153 159 165 159 158 158 164 166 162 176 260 300 308 298 277 253 217 221 224 217 207
134 128 140 156 155 159 162 156 155 152 141 316 322 327 297 289 232 212 206 211 208 211
139 142 137 157 154 161 157 157 146 139 48 16 24 24 9 1 167 222 212 205 210 207
159 156 160 158 153 155 155 151 152 149 49 37 37 29 15 355 19 236 199 173 180 189
160 147 150 167 166 159 161 156 163 138 56 39 34 33 29 27 75 119 129 150 181 179
159 149 152 143 154 170 168 170 178 168 48 27 22 21 20 49 118 133 130 132 142 152
163 166 166 176 177 179 180 182 184 198 19 3 24 36 49 59 114 129 128 131 147 177
168 161 174 183 189 193 199 194 202 217 308 344 72 74 74 73 109 135 130 127 123 123
174 171 179 189 198 197 192 194 205 217 237 3 106 102 104 87 79 141 132 123 126 120
Height
1402 1407 1413 1419 1424 1429 1434 1438 1441 1444 1446 1448 1450 1452 1453 1454 1454 1455 1456 1456 1456 1457
1405 1411 1416 1421 1425 1430 1435 1438 1440 1442 1444 1447 1449 1450 1451 1452 1453 1453 1453 1454 1454 1455
1408 1413 1419 1423 1427 1432 1435 1437 1439 1442 1444 1446 1448 1449 1449 1450 1451 1451 1451 1452 1452 1454
1411 1416 1421 1425 1428 1431 1434 1436 1439 1441 1443 1445 1447 1447 1447 1448 1448 1449 1449 1449 1451 1452
1414 1418 1422 1425 1428 1430 1433 1436 1439 1441 1444 1445 1445 1445 1445 1445 1444 1445 1446 1447 1449 1450
1416 1419 1423 1425 1428 1431 1434 1437 1439 1442 1443 1444 1444 1443 1442 1440 1442 1442 1444 1446 1447 1449
1418 1421 1423 1426 1429 1432 1435 1438 1440 1442 1443 1443 1442 1441 1440 1440 1439 1440 1442 1444 1446 1448
1419 1421 1424 1427 1430 1432 1435 1439 1440 1441 1442 1441 1441 1440 1440 1439 1439 1439 1441 1443 1444 1447
1420 1422 1425 1428 1431 1433 1436 1439 1440 1442 1442 1441 1441 1440 1439 1439 1439 1439 1440 1441 1443 1446
1421 1423 1426 1429 1432 1435 1437 1439 1441 1442 1442 1442 1442 1441 1440 1439 1439 1439 1440 1442 1444 1445
1423 1425 1428 1431 1433 1436 1438 1440 1441 1442 1443 1443 1443 1441 1440 1439 1439 1440 1441 1442 1443 1446
1424 1426 1429 1432 1434 1436 1439 1441 1442 1443 1444 1444 1443 1442 1441 1441 1440 1441 1442 1443 1445 1447
1425 1427 1430 1433 1435 1437 1439 1441 1442 1443 1444 1444 1444 1443 1442 1443 1443 1443 1444 1446 1447 1448
1426 1429 1431 1433 1435 1436 1438 1440 1441 1443 1444 1444 1445 1444 1444 1444 1444 1445 1446 1448 1449 1452